When you browse on this site, cookies collect data to enhance your experience and personalize the content and advertising you see.
Visit our Privacy Policy to learn more. By continuing to use the site, you agree to this use of cookies and data.
  • In Hungary
  • List of Countries
  • For 7 days
  • Water Temperature
  • Satellite Maps
  • Weather Map
  • News
  • Weather Widgets
  • user-avatar
    Login

    Hourly Weather Montilla

    Today, 20 November, Tuesday

    Time Temperature Precipitation Wind Pressure Humidity
    00:00 +12°C° 0 mm 2 mps 725 mmHg 92%
    01:00 +12°C° 0.1 mm 2 mps 725 mmHg 91%
    02:00 +10°C° 0.1 mm 2 mps 725 mmHg 91%
    03:00 +11°C° 0.1 mm 1 mps 725 mmHg 91%
    04:00 +12°C° 1.2 mm 2 mps 725 mmHg 90%
    05:00 +12°C° 1.2 mm 2 mps 724 mmHg 90%
    06:00 +12°C° 0 mm 2 mps 724 mmHg 90%
    07:00 +13°C° 1.2 mm 2 mps 724 mmHg 89%
    08:00 +13°C° 1.2 mm 2 mps 725 mmHg 89%
    09:00 +13°C° 1.2 mm 2 mps 725 mmHg 89%
    10:00 +13°C° 0.4 mm 3 mps 725 mmHg 84%
    11:00 +14°C° 0.4 mm 5 mps 726 mmHg 79%
    12:00 +15°C° 0.4 mm 6 mps 726 mmHg 74%
    13:00 +15°C° 0.2 mm 6 mps 726 mmHg 72%
    14:00 +15°C° 0.2 mm 7 mps 727 mmHg 69%
    15:00 +15°C° 0.2 mm 8 mps 727 mmHg 67%
    16:00 +14°C° 0.1 mm 7 mps 727 mmHg 72%
    17:00 +13°C° 0.1 mm 6 mps 728 mmHg 77%
    18:00 +12°C° 0.1 mm 5 mps 728 mmHg 83%
    19:00 +12°C° 0.2 mm 4 mps 728 mmHg 85%
    20:00 +12°C° 0.2 mm 4 mps 729 mmHg 88%
    21:00 +11°C° 0.2 mm 4 mps 729 mmHg 90%
    22:00 +11°C° 0.1 mm 3 mps 729 mmHg 91%
    23:00 +11°C° 0.1 mm 3 mps 730 mmHg 92%

    Tomorrow, 21 November, Wednesday

    Time Temperature Precipitation Wind Pressure Humidity
    00:00 +11°C° 0.1 mm 3 mps 730 mmHg 93%
    01:00 +11°C° 0.1 mm 3 mps 730 mmHg 93%
    02:00 +12°C° 0.1 mm 2 mps 730 mmHg 92%
    03:00 +12°C° 0.1 mm 2 mps 730 mmHg 92%
    04:00 +12°C° 0.2 mm 2 mps 730 mmHg 92%
    05:00 +12°C° 0.2 mm 2 mps 731 mmHg 91%
    06:00 +12°C° 0.2 mm 1 mps 731 mmHg 91%
    07:00 +13°C° 0.1 mm 1 mps 731 mmHg 89%
    08:00 +13°C° 0.1 mm 1 mps 731 mmHg 87%
    09:00 +14°C° 0.1 mm 1 mps 732 mmHg 85%
    10:00 +15°C° 0.2 mm 2 mps 732 mmHg 78%
    11:00 +16°C° 0.2 mm 3 mps 732 mmHg 72%
    12:00 +17°C° 0.2 mm 3 mps 732 mmHg 66%
    13:00 +17°C° 0.3 mm 4 mps 732 mmHg 67%
    14:00 +15°C° 0.3 mm 4 mps 732 mmHg 68%
    15:00 +15°C° 0.3 mm 4 mps 732 mmHg 69%
    16:00 +14°C° 0.3 mm 3 mps 732 mmHg 75%
    17:00 +13°C° 0.3 mm 3 mps 732 mmHg 80%
    18:00 +13°C° 0.3 mm 2 mps 733 mmHg 86%
    19:00 +13°C° 0.1 mm 2 mps 733 mmHg 88%
    20:00 +12°C° 0.1 mm 2 mps 733 mmHg 89%
    21:00 +12°C° 0.1 mm 1 mps 734 mmHg 91%
    22:00 +12°C° 0 mm 1 mps 734 mmHg 91%
    23:00 +12°C° 0 mm 1 mps 734 mmHg 91%

    Day after tomorrow, 22 November, Thursday

    Time Temperature Precipitation Wind Pressure Humidity
    00:00 +11°C° 0 mm 1 mps 734 mmHg 91%
    01:00 +11°C° 0 mm 1 mps 734 mmHg 91%
    02:00 +11°C° 0 mm 1 mps 734 mmHg 91%
    03:00 +10°C° 0 mm 0 mps 734 mmHg 91%
    04:00 +11°C° 0 mm 1 mps 734 mmHg 91%
    05:00 +11°C° 0 mm 1 mps 734 mmHg 90%
    06:00 +11°C° 0 mm 1 mps 734 mmHg 90%
    07:00 +12°C° 0 mm 1 mps 734 mmHg 87%
    08:00 +12°C° 0 mm 1 mps 734 mmHg 83%
    09:00 +13°C° 0 mm 1 mps 734 mmHg 80%
    10:00 +14°C° 0 mm 1 mps 734 mmHg 76%
    11:00 +15°C° 0 mm 1 mps 734 mmHg 71%
    12:00 +16°C° 0 mm 1 mps 734 mmHg 67%
    13:00 +15°C° 0.2 mm 1 mps 734 mmHg 69%
    14:00 +15°C° 0.2 mm 1 mps 734 mmHg 71%
    15:00 +15°C° 0.2 mm 1 mps 733 mmHg 73%
    16:00 +14°C° 0.2 mm 1 mps 733 mmHg 77%
    17:00 +14°C° 0.2 mm 1 mps 733 mmHg 81%
    18:00 +13°C° 0.2 mm 1 mps 733 mmHg 84%
    19:00 +13°C° 0.1 mm 1 mps 734 mmHg 85%
    20:00 +13°C° 0.1 mm 1 mps 734 mmHg 85%
    21:00 +13°C° 0.1 mm 1 mps 734 mmHg 86%
    22:00 +13°C° 0.2 mm 1 mps 734 mmHg 86%
    23:00 +11°C° 0.2 mm 0 mps 734 mmHg 87%

    23 November, Friday

    Time Temperature Precipitation Wind Pressure Humidity
    00:00 +11°C° 0.2 mm 0 mps 734 mmHg 88%
    01:00 +11°C° 0.7 mm 0 mps 733 mmHg 89%
    02:00 +12°C° 0.7 mm 1 mps 733 mmHg 90%
    03:00 +12°C° 0.7 mm 1 mps 733 mmHg 91%
    04:00 +12°C° 1 mm 1 mps 733 mmHg 91%
    05:00 +12°C° 1 mm 1 mps 733 mmHg 92%
    06:00 +12°C° 1 mm 1 mps 733 mmHg 93%
    07:00 +12°C° 1.1 mm 1 mps 733 mmHg 93%
    08:00 +12°C° 1.1 mm 1 mps 734 mmHg 93%
    09:00 +12°C° 1.1 mm 1 mps 734 mmHg 94%
    10:00 +12°C° 0.6 mm 1 mps 734 mmHg 90%
    11:00 +13°C° 0.6 mm 1 mps 734 mmHg 87%
    12:00 +12°C° 0.6 mm 0 mps 734 mmHg 84%
    13:00 +14°C° 0 mm 1 mps 734 mmHg 79%
    14:00 +14°C° 0 mm 1 mps 734 mmHg 74%
    15:00 +15°C° 0 mm 2 mps 734 mmHg 69%
    16:00 +14°C° 0 mm 2 mps 734 mmHg 74%
    17:00 +13°C° 0 mm 1 mps 734 mmHg 79%
    18:00 +12°C° 0 mm 1 mps 735 mmHg 83%
    19:00 +12°C° 0 mm 1 mps 735 mmHg 85%
    20:00 +11°C° 0 mm 1 mps 735 mmHg 87%
    21:00 +11°C° 0 mm 1 mps 736 mmHg 88%
    22:00 +11°C° 0 mm 1 mps 736 mmHg 89%
    23:00 +10°C° 0 mm 1 mps 736 mmHg 90%

    24 November, Saturday

    Time Temperature Precipitation Wind Pressure Humidity
    00:00 +10°C° 0 mm 1 mps 736 mmHg 91%
    01:00 +10°C° 0 mm 1 mps 736 mmHg 91%
    02:00 +10°C° 0 mm 1 mps 736 mmHg 92%
    03:00 +8°C° 0 mm 0 mps 736 mmHg 92%
    04:00 +8°C° 0 mm 0 mps 736 mmHg 92%
    05:00 +9°C° 0 mm 1 mps 736 mmHg 91%
    06:00 +9°C° 0 mm 1 mps 736 mmHg 91%
    07:00 +10°C° 0 mm 1 mps 736 mmHg 87%
    08:00 +11°C° 0 mm 1 mps 736 mmHg 83%
    09:00 +10°C° 0 mm 0 mps 737 mmHg 80%
    10:00 +13°C° 0 mm 1 mps 736 mmHg 74%
    11:00 +14°C° 0 mm 1 mps 736 mmHg 68%
    12:00 +15°C° 0 mm 1 mps 736 mmHg 62%
    13:00 +15°C° 0 mm 1 mps 736 mmHg 60%
    14:00 +15°C° 0 mm 1 mps 735 mmHg 58%
    15:00 +16°C° 0 mm 1 mps 735 mmHg 55%
    16:00 +15°C° 0 mm 1 mps 735 mmHg 61%
    17:00 +13°C° 0 mm 0 mps 735 mmHg 66%
    18:00 +12°C° 0 mm 0 mps 735 mmHg 71%
    19:00 +11°C° 0 mm 0 mps 735 mmHg 73%
    20:00 +11°C° 0 mm 0 mps 735 mmHg 75%
    21:00 +10°C° 0 mm 0 mps 735 mmHg 76%
    22:00 +10°C° 0 mm 0 mps 735 mmHg 77%
    23:00 +10°C° 0 mm 0 mps 735 mmHg 78%

    25 November, Sunday

    Time Temperature Precipitation Wind Pressure Humidity
    00:00 +9°C° 0 mm 0 mps 735 mmHg 79%
    01:00 +9°C° 0 mm 0 mps 735 mmHg 79%
    02:00 +9°C° 0 mm 0 mps 735 mmHg 80%
    03:00 +9°C° 0 mm 0 mps 735 mmHg 81%
    04:00 +10°C° 0 mm 1 mps 735 mmHg 81%
    05:00 +9°C° 0 mm 1 mps 735 mmHg 81%
    06:00 +9°C° 0 mm 1 mps 734 mmHg 81%
    07:00 +10°C° 0 mm 1 mps 735 mmHg 78%
    08:00 +11°C° 0 mm 1 mps 735 mmHg 75%
    09:00 +12°C° 0 mm 1 mps 735 mmHg 72%
    10:00 +12°C° 0.2 mm 1 mps 735 mmHg 73%
    11:00 +12°C° 0.2 mm 1 mps 735 mmHg 74%
    12:00 +13°C° 0.2 mm 1 mps 735 mmHg 75%
    13:00 +13°C° 0.1 mm 1 mps 735 mmHg 76%
    14:00 +14°C° 0.1 mm 1 mps 735 mmHg 78%
    15:00 +14°C° 0.1 mm 1 mps 734 mmHg 80%
    16:00 +14°C° 0.1 mm 1 mps 734 mmHg 83%
    17:00 +13°C° 0.1 mm 1 mps 735 mmHg 86%
    18:00 +13°C° 0.1 mm 1 mps 735 mmHg 89%
    19:00 +13°C° 0.1 mm 1 mps 735 mmHg 90%
    20:00 +13°C° 0.1 mm 2 mps 735 mmHg 91%
    21:00 +13°C° 0.1 mm 2 mps 736 mmHg 92%
    22:00 +13°C° 0 mm 2 mps 736 mmHg 92%
    23:00 +12°C° 0 mm 2 mps 736 mmHg 93%
    Show more